User: anonymous   Login
Location: ?????
(44.4284°N, 135.2222°E)
Time: 02:59:54
(UTC+00:00)
Language:

ISS - Orbit

View from above orbital plane
View from above orbital plane
View from above satellite
View from above satellite

Ground track
Ground track

The orbit data is extracted from the following two-line orbital elements,

1 25544U 98067A   25194.82082520  .00010000  00000-0  17963-3 0  9998
2 25544  51.6341 175.0526 0002688   7.9305 352.1726 15.50527943519299
Epoch (UTC): 13 July 2025 19:41:59
Eccentricity: 0.0002688
inclination: 51.6341°
perigee height: 413 km
apogee height: 417 km
right ascension of ascending node: 175.0526°
argument of perigee: 7.9305°
revolutions per day: 15.50527943
mean anomaly at epoch: 352.1726°
orbit number at epoch: 51929

The dashed part of the orbit path shows where the satellite is in the earth's shadow,  

DLR